Liberia, Costa Rica

3:59 PM CST on April 21, 2018 (GMT -0600)
Daniel Oduber Quiros International

Weather History for MRLB - October, 2013

Change the Weather History Date:

Tuesday, October 22, 2013

  Actual Average Record
Temperature  
Mean Temperature 80 °F -  
Max Temperature 88 °F 85 °F 91 °F (2000)
Min Temperature 71 °F 72 °F 71 °F (2006)
Cooling Degree Days 14    
Growing Degree Days 30 (Base 50)    
Moisture  
Dew Point 73 °F    
Average Humidity 82    
Maximum Humidity 94    
Minimum Humidity 54    
Precipitation  
Precipitation 0.20 in - - ()
Sea Level Pressure  
Sea Level Pressure 29.83 in    
Wind  
Wind Speed 3 mph ()    
Max Wind Speed 9 mph    
Max Gust Speed -    
Visibility 6.0 miles    
Events Fog , Rain    
Averages and records for this station are not official NWS values.
T = Trace of Precipitation, MM = Missing Value Source: Averaged Metar Reports

Daily Weather History Graph

Daily Weather History Graph

Search for Another Location

Airport or City:

Astronomy

Oct. 22, 2013 Rise Set
Actual Time 5:31 AM CST 5:21 PM CST
Civil Twilight 5:10 AM CST 5:42 PM CST
Nautical Twilight 4:45 AM CST 6:07 PM CST
Astronomical Twilight 4:20 AM CST 6:32 PM CST
Moon 8:27 PM CST (10/22) 8:33 AM CST (10/22)
Length of Visible Light 12h 32m
Length of Day
11h 49m
Waning Gibbous, 86% of the Moon is Illuminated
Oct 22
Waning Gibbous
Oct 26
Last Quarter
Nov 3
New
Nov 9
First Quarter
Nov 17
Full

Hourly Weather History & Observations

Time (CST) Temp. Heat Index Dew Point Humidity Pressure Visibility Wind Dir Wind Speed Gust Speed Precip Events Conditions
6:00 AM 72 °F - 71 °F 94% 29.87 in 3 mi Calm Calm - -   Mist
6:00 AM 71.6 °F - 69.8 °F 94% 29.86 in 0.3 mi Calm Calm - N/A Fog Fog
6:13 AM 71.6 °F - 69.8 °F 94% 29.87 in 0.1 mi NNE 3.5 mph - N/A   Unknown
7:00 AM 73.4 °F - 71.6 °F 94% 29.87 in 0.2 mi Calm Calm - N/A Fog Fog
7:05 AM 73.4 °F - 71.6 °F 94% 29.87 in 6.2 mi NNE 2.3 mph - N/A   Mostly Cloudy
8:00 AM 77.0 °F - 73.4 °F 89% 29.88 in 6.2 mi East 3.5 mph - N/A   Scattered Clouds
9:00 AM 80.6 °F 85.4 °F 73.4 °F 79% 29.88 in 6.2 mi SSE 2.3 mph - N/A   Scattered Clouds
10:00 AM 84.2 °F 90.9 °F 73.4 °F 70% 29.88 in 6.2 mi SSE 2.3 mph - N/A   Scattered Clouds
11:00 AM 86.0 °F 93.4 °F 73.4 °F 66% 29.86 in 6.2 mi West 3.5 mph - N/A   Mostly Cloudy
12:00 PM 88 °F - 74 °F 54% 29.85 in 12 mi SSW 5.8 mph - -   Partly Cloudy
12:00 PM 87.8 °F 95.6 °F 73.4 °F 62% 29.83 in 6.2 mi SSW 5.8 mph - N/A   Scattered Clouds
1:00 PM 82.4 °F 88.2 °F 73.4 °F 74% 29.80 in 6.2 mi West 8.1 mph - N/A Rain Rain
2:00 PM 80.6 °F 86.2 °F 75.2 °F 84% 29.77 in 6.2 mi West 5.8 mph - N/A   Mostly Cloudy
3:00 PM 81 °F - 75 °F 78% 29.79 in 12 mi West 5.8 mph - -   Overcast
3:00 PM 80.6 °F 86.2 °F 75.2 °F 84% 29.77 in 6.2 mi West 5.8 mph - N/A   Mostly Cloudy
4:00 PM 80.6 °F 85.4 °F 73.4 °F 79% 29.76 in 6.2 mi WNW 4.6 mph - N/A   Mostly Cloudy
5:00 PM 80.6 °F 86.2 °F 75.2 °F 84% 29.79 in 6.2 mi NW 3.5 mph - N/A   Mostly Cloudy
6:00 PM 78 °F - 74 °F 84% 29.84 in 12 mi NE 5.8 mph - -   Overcast
6:00 PM 78.8 °F - 73.4 °F 83% 29.82 in 6.2 mi NE 5.8 mph - N/A   Mostly Cloudy
6:10 PM 77.0 °F - 73.4 °F 89% 29.83 in 5.0 mi East 9.2 mph - N/A Rain Rain
7:00 PM 75.2 °F - 71.6 °F 89% 29.83 in 6.2 mi NE 3.5 mph - N/A Rain Light Rain
8:00 PM 75.2 °F - 71.6 °F 89% 29.83 in 6.2 mi NE 3.5 mph - N/A Rain Light Rain